Helicity
13 61 81 51 28 4 37 3 55 93 203 53 0 48 60 81 68 137 38 97 65 73 80 81 78 75 73 81 80 69 50 48 50 64 70 79 86 86 84 82 78 79 81 81 74 74 75 71 66
32 82 54 53 26 49 135 109 196 110 40 120 72 -15 97 117 101 114 114 63 74 73 80 73 76 59 68 89 75 66 64 68 77 82 89 87 83 79 69 61 54 53 56 64 61 51 52 55 57
47 46 47 12 13 107 46 94 104 93 9 69 112 213 70 60 88 129 137 123 68 71 66 63 71 89 90 77 74 73 73 76 77 81 84 69 54 46 38 38 40 45 49 42 35 33 36 34 32
73 12 55 45 104 81 161 101 85 108 139 113 120 134 204 127 92 123 123 56 83 66 57 52 56 48 59 69 85 91 90 82 75 59 47 40 39 37 40 45 46 47 44 43 39 32 28 23 13
62 19 -57 -3 110 44 41 -3 36 121 78 143 180 126 130 124 36 116 92 56 86 49 33 26 34 48 65 79 81 68 60 48 34 30 29 39 43 45 49 45 45 46 40 37 32 26 21 17 11
47 56 59 136 96 66 139 39 58 86 130 68 139 156 32 45 140 114 54 40 34 25 1 9 34 54 60 51 47 54 45 28 27 28 32 33 33 35 45 45 41 39 35 30 22 15 11 10 8
-27 2 58 86 43 96 131 93 27 -7 86 72 91 40 63 113 26 98 58 27 35 12 8 -11 4 31 26 25 29 26 22 20 18 22 31 15 25 20 23 38 35 37 30 23 20 4 -2 9 11
1 36 190 76 55 141 82 78 35 93 135 -26 53 76 160 83 75 104 68 28 14 -2 -10 -12 17 5 -8 -29 10 12 14 12 0 14 22 7 27 7 1 27 16 9 10 12 0 -6 -1 15 25
6 102 95 31 186 103 76 131 54 56 126 138 102 124 151 86 138 117 51 -2 7 -27 -23 -1 -3 -20 -13 -35 -14 -17 -8 0 -13 6 4 -12 10 19 20 27 27 9 24 11 -8 1 5 4 9
83 15 112 77 68 25 38 81 46 90 84 135 213 215 177 129 116 69 15 35 56 44 76 30 24 3 14 8 15 -5 -29 -33 -29 -31 -1 -12 0 13 27 34 32 14 18 9 -6 2 6 23 37
-16 36 25 107 -4 30 75 30 28 32 74 108 120 105 102 74 57 33 -4 39 46 67 159 153 67 56 30 49 21 15 -16 -29 -1 4 45 49 53 58 65 49 30 39 15 30 19 32 51 48 70
50 66 31 55 160 95 90 -8 -25 26 54 105 177 128 79 53 30 11 -16 22 87 144 218 188 122 85 42 43 55 38 63 77 87 75 75 75 67 73 79 54 30 12 25 31 40 49 49 47 39
67 80 85 63 201 236 111 25 33 64 100 108 152 142 67 18 3 -13 15 70 107 181 249 259 194 87 51 67 50 69 121 100 110 123 109 91 83 59 47 35 26 24 34 47 55 57 51 47 40
69 66 8 21 50 62 42 21 9 24 75 78 117 94 68 76 44 -9 -13 57 131 127 284 255 280 101 78 73 94 67 114 97 137 117 104 99 88 57 66 56 52 46 53 54 63 58 49 49 68
30 13 -6 -9 -31 -11 10 3 -37 72 92 119 81 126 90 78 77 46 -2 55 51 145 309 327 394 58 144 -10 132 115 89 110 132 119 126 119 121 89 100 95 80 74 82 78 73 63 57 57 64
7 9 61 3 32 -3 37 -15 -10 106 113 104 87 50 105 47 66 75 50 140 83 99 175 186 192 85 -39 -4 131 149 145 115 107 132 135 177 186 171 167 126 93 101 104 96 101 99 79 77 83
-1 23 -10 -13 71 43 38 19 105 75 60 47 84 46 34 42 99 153 191 203 181 181 158 212 144 -6 45 69 164 161 140 96 104 123 160 185 235 241 212 160 121 108 105 109 121 137 115 97 75
17 15 47 70 17 20 -10 -28 64 27 69 73 64 26 102 345 410 415 456 419 316 246 287 254 225 243 171 191 194 219 217 217 199 199 178 173 166 182 189 186 157 138 124 114 111 91 76 64 78
50 60 48 79 99 56 18 -26 131 116 48 30 133 167 376 415 419 522 535 485 383 265 318 280 302 272 250 237 191 204 238 207 162 127 154 179 223 304 245 243 257 215 137 119 106 92 99 112 109
45 79 82 27 49 38 68 64 66 165 193 242 229 206 262 311 322 362 395 414 388 293 245 218 181 179 234 260 260 251 206 219 260 273 269 273 307 316 314 262 211 190 161 142 119 104 87 98 115
125 62 101 78 41 11 12 58 151 202 278 373 157 72 72 102 180 224 245 249 266 270 195 145 110 119 161 195 168 175 171 164 166 167 154 186 227 255 236 184 167 130 110 112 112 113 136 120 120
96 77 47 47 40 29 78 85 220 261 334 410 424 336 262 185 143 96 85 155 172 178 171 148 81 82 105 118 125 126 113 123 118 151 184 200 208 206 157 120 94 97 101 89 81 104 84 97 104
35 30 23 31 38 50 65 67 150 275 291 297 313 305 245 220 180 114 65 79 76 87 95 79 135 138 113 94 63 62 115 152 187 190 198 178 143 111 115 117 97 80 49 62 94 108 143 151 146
27 62 68 81 91 73 78 40 179 186 198 298 243 196 163 183 110 89 117 111 50 8 -8 56 107 125 148 181 249 279 281 273 259 221 150 77 57 77 52 21 36 38 63 81 92 102 142 155 141
31 53 57 64 56 51 19 89 53 232 207 232 306 342 322 209 173 175 162 124 94 142 163 170 173 156 153 153 172 219 257 258 238 186 114 110 84 47 53 52 31 60 90 106 109 136 140 103 109
13 18 38 46 54 18 28 103 159 256 313 261 211 189 135 105 89 136 155 179 205 260 280 238 223 196 216 213 265 257 231 183 166 135 93 110 129 94 65 44 56 114 118 107 115 92 71 70 82
7 31 15 50 18 45 56 61 141 68 97 121 90 49 24 6 107 178 272 326 306 304 258 232 255 262 308 326 323 270 218 171 116 94 177 159 114 65 60 52 101 99 98 83 73 91 73 103 103
23 22 41 38 60 39 61 86 64 85 127 130 126 118 126 186 295 340 317 280 278 238 180 197 227 246 261 269 301 228 193 175 177 239 232 177 112 72 86 92 77 102 93 68 84 83 66 91 99
22 56 55 64 116 109 59 75 79 54 110 154 176 180 221 260 289 275 252 204 186 165 112 150 174 209 256 263 216 181 158 154 208 257 214 199 117 95 74 82 83 92 99 79 56 40 47 72 94
47 86 103 125 87 137 175 69 13 165 196 216 213 196 227 223 188 159 196 205 166 126 136 148 215 266 230 188 154 172 188 228 241 288 235 238 155 133 154 157 126 108 102 86 71 81 108 110 114
Wind_Speed
44 41 38 32 26 22 31 34 21 24 24 33 36 30 33 31 21 25 28 32 34 29 29 31 32 31 33 35 37 37 37 37 38 40 41 43 44 44 44 45 46 47 49 49 49 50 49 49 49
37 36 29 31 26 28 26 19 17 16 22 36 36 34 38 35 35 30 27 32 31 30 31 30 31 32 33 34 35 35 35 36 37 38 41 43 44 45 45 45 46 47 48 49 50 48 48 49 50
36 34 26 24 24 34 27 12 14 17 24 24 31 40 32 27 25 24 32 33 33 33 31 31 31 32 33 33 33 34 35 34 35 38 40 41 43 44 45 45 46 47 48 49 50 50 50 50 49
28 28 31 26 29 30 6 10 15 22 32 28 26 38 35 30 26 27 33 31 32 31 30 31 34 36 36 35 35 35 34 35 36 37 38 40 42 43 44 45 46 47 47 48 48 49 49 50 50
27 26 19 22 25 19 17 19 18 25 28 28 33 30 33 32 34 30 32 31 31 30 30 33 37 38 38 39 38 37 37 37 37 38 39 41 42 42 43 44 46 47 47 49 49 50 51 51 52
20 26 24 27 10 14 19 29 20 25 25 32 37 33 30 30 31 31 31 29 32 33 37 38 36 38 39 37 37 37 39 39 39 39 39 40 40 42 43 43 45 46 47 48 49 51 52 52 53
12 24 31 41 29 12 19 29 29 27 29 24 30 29 28 31 34 28 29 31 35 38 39 38 37 38 39 39 39 38 39 38 38 37 38 38 40 40 41 41 44 44 44 45 48 51 53 53 55
21 26 34 25 11 12 18 25 32 26 28 30 27 23 24 33 32 28 29 36 39 39 39 37 36 35 37 38 37 37 37 37 37 37 36 35 35 36 37 39 43 43 44 46 46 50 52 53 54
41 26 53 49 12 13 15 18 27 23 25 30 26 18 24 27 25 21 31 33 36 37 35 33 33 33 34 37 36 36 36 34 34 34 34 33 34 33 35 36 40 42 44 45 46 48 49 52 52
12 25 25 24 23 20 20 19 19 16 21 24 15 13 18 20 24 30 35 33 32 30 31 31 31 30 30 31 31 31 31 32 32 33 36 33 35 29 32 36 38 42 43 43 44 45 47 47 48
24 19 22 29 26 22 24 24 19 16 18 17 17 15 18 23 25 30 32 32 30 29 26 25 28 28 29 31 28 26 27 27 28 31 38 40 42 41 44 41 43 45 45 44 46 46 48 47 47
21 25 21 22 26 21 23 21 25 19 19 28 31 31 24 23 26 29 34 29 27 23 26 23 24 27 30 34 34 32 29 29 30 32 37 40 41 43 44 46 47 49 50 49 49 50 56 55 57
19 24 22 22 22 20 17 15 20 14 18 33 33 29 27 28 31 32 29 28 24 22 23 21 23 23 26 30 31 31 31 29 29 30 35 38 40 41 42 45 50 53 55 56 56 60 65 61 60
17 20 17 19 22 22 22 25 33 19 26 31 29 28 29 29 30 29 25 22 24 21 18 17 16 26 27 25 27 27 26 29 29 28 32 35 38 41 43 49 54 56 59 61 63 67 73 70 64
10 12 17 26 24 31 37 38 42 27 27 25 25 25 25 25 27 28 24 21 24 18 21 9 20 21 23 17 25 25 21 29 30 29 31 32 35 38 45 51 57 60 61 64 68 74 75 76 75
37 36 35 44 40 34 16 42 40 24 20 21 22 21 20 21 20 23 21 25 25 20 19 14 15 16 15 13 21 26 27 30 35 39 34 38 40 44 48 54 61 64 68 72 74 78 82 81 80
37 41 45 45 35 22 19 38 25 21 21 19 17 16 16 16 16 19 22 25 27 28 29 23 22 16 18 23 28 28 31 37 35 41 38 39 43 47 52 60 66 69 74 78 81 82 83 86 86
34 33 52 19 22 25 28 32 15 23 18 18 16 12 12 24 27 25 28 29 31 30 31 34 32 32 33 34 37 42 42 44 43 41 42 45 45 51 58 65 70 72 79 83 85 86 86 86 89
28 23 18 17 25 30 32 31 18 25 20 25 27 22 20 24 25 27 30 31 31 33 34 37 41 46 44 42 41 43 45 44 46 47 51 51 56 62 67 69 74 75 79 78 78 78 84 88 87
34 30 26 26 31 37 32 37 16 23 30 28 26 26 24 22 24 27 31 34 36 36 36 38 41 44 48 47 45 45 51 51 49 54 55 59 64 67 69 75 77 79 80 83 82 84 89 84 78
31 26 35 39 47 36 26 30 19 24 25 28 27 26 25 22 22 26 31 34 35 37 39 39 40 42 45 48 50 54 55 55 60 62 64 66 69 72 76 80 82 82 84 87 87 89 85 83 77
30 36 40 45 47 39 31 33 17 15 20 23 26 27 28 27 28 28 30 32 34 38 41 43 41 44 46 48 53 53 54 58 57 60 63 69 75 80 80 83 86 90 88 87 81 72 73 76 84
31 39 38 38 41 41 37 35 20 12 16 16 22 25 26 29 31 31 31 31 33 36 40 44 50 49 47 49 50 51 54 55 58 63 69 75 78 80 83 87 83 82 77 77 78 77 77 77 80
35 38 34 29 31 35 43 29 17 13 10 15 18 19 22 29 30 30 28 29 31 33 37 43 48 55 57 54 54 56 60 62 65 70 76 79 80 81 81 77 82 77 77 77 78 76 77 79 78
38 43 35 32 33 32 39 36 29 29 10 7 14 21 27 30 30 32 31 31 33 39 44 45 49 54 53 55 56 59 60 63 67 71 76 81 80 78 79 83 81 76 74 75 76 75 78 80 82
36 39 34 31 35 40 39 28 27 26 30 25 22 22 25 26 28 30 35 40 39 42 45 48 51 54 53 54 56 58 64 65 67 69 74 77 73 75 80 85 75 73 73 76 76 78 80 76 79
36 39 34 33 32 34 31 29 28 25 22 21 25 24 20 23 27 35 40 43 47 50 53 53 55 54 55 55 59 64 66 66 68 71 72 68 71 75 81 83 74 72 73 73 74 78 77 73 69
41 35 38 37 32 30 30 31 27 20 23 29 36 26 32 36 40 42 44 47 52 54 55 57 56 54 55 56 62 66 71 72 72 66 69 69 74 77 80 78 75 73 72 71 71 70 67 68 65
39 36 41 37 34 30 35 30 36 29 20 24 34 36 34 37 41 44 47 53 57 61 62 64 57 57 59 62 66 71 73 70 61 63 62 68 71 76 73 73 75 75 74 70 65 66 66 65 64
36 38 39 38 36 38 35 27 36 29 35 37 41 35 38 41 43 46 51 57 65 64 69 67 57 63 62 66 72 73 70 70 62 61 63 66 67 69 68 70 74 74 72 70 69 68 60 64 65
Wind_Direction
273 270 273 288 298 299 301 304 320 340 359 21 21 27 36 21 10 355 76 68 67 64 64 61 59 51 47 41 41 40 41 37 36 31 26 23 20 16 11 4 0 360 357 355 354 349 346 345 340
274 274 279 283 294 284 309 359 16 26 45 38 30 25 13 23 41 63 59 69 60 66 66 60 58 55 49 41 39 36 32 30 22 21 26 27 26 18 12 14 10 15 18 12 7 8 358 346 338
260 260 280 292 299 294 296 318 10 9 9 13 356 1 11 32 19 44 77 65 62 63 63 63 59 52 44 38 32 27 25 15 15 18 18 23 24 25 29 26 24 17 13 11 10 8 7 359 347
272 264 263 286 314 330 71 25 360 341 4 25 23 7 22 44 38 67 78 65 64 65 61 62 61 60 51 44 36 29 20 17 19 18 28 27 27 25 21 17 14 10 9 10 12 10 8 4 359
244 265 286 304 320 354 37 30 19 6 12 34 35 40 33 43 75 78 76 67 72 67 63 62 65 58 55 50 47 41 40 39 35 35 34 32 30 27 21 13 9 7 3 359 359 357 356 355 351
285 265 289 304 298 329 356 6 14 3 25 48 52 46 49 60 69 75 75 71 77 75 78 74 63 58 54 48 45 47 48 45 44 42 39 36 34 27 21 21 14 7 2 360 356 352 349 349 346
308 289 292 283 272 328 5 348 22 59 42 50 69 48 63 71 83 77 76 75 80 84 82 77 67 64 61 60 59 57 58 53 49 44 43 41 33 32 31 26 19 12 7 3 357 352 347 344 338
282 331 292 277 336 336 23 14 25 31 33 67 63 35 84 92 84 79 74 86 92 94 93 86 71 65 63 61 59 61 56 57 55 52 49 42 42 37 32 27 17 15 12 6 2 358 354 349 342
256 335 270 223 80 56 6 7 2 6 8 2 325 67 90 90 83 69 83 86 98 100 93 85 76 73 68 62 64 65 64 62 55 51 46 43 37 36 31 24 18 12 9 6 3 0 356 350 345
12 353 10 36 75 47 17 18 345 12 12 12 359 63 87 83 85 93 108 102 95 91 86 81 66 81 72 67 66 66 63 62 59 53 42 37 30 34 28 19 15 10 8 7 3 2 360 356 350
344 12 8 22 71 51 31 15 19 54 46 67 80 86 80 87 95 107 117 119 108 104 83 72 59 60 61 64 70 69 66 62 50 47 29 23 20 22 14 16 11 7 5 2 358 358 356 354 351
346 9 21 354 351 31 34 37 14 12 88 99 100 97 85 90 107 123 140 127 115 97 99 87 69 65 40 31 39 51 53 47 40 36 27 21 19 16 14 8 4 1 359 357 355 353 350 348 344
12 3 345 326 318 310 37 353 295 353 12 99 101 95 92 99 123 144 145 141 120 107 117 114 88 56 43 43 31 27 29 31 26 30 23 17 13 9 7 3 357 353 351 350 347 342 338 338 336
359 2 343 263 265 280 277 271 242 55 61 96 97 101 107 112 124 129 132 124 126 119 126 94 22 49 32 48 36 27 26 18 13 16 13 13 10 2 2 356 351 348 346 344 340 335 329 329 331
339 13 261 234 250 229 223 232 216 97 80 83 86 110 115 122 128 134 119 85 118 68 85 51 53 358 6 38 29 22 28 12 8 5 2 2 2 359 356 352 348 346 344 341 338 333 329 325 325
218 230 226 201 154 189 4 229 176 102 78 89 95 99 117 130 130 131 104 74 72 56 74 115 31 49 78 43 29 15 14 6 359 355 353 355 357 356 355 349 345 343 339 335 333 331 326 324 323
221 211 221 199 132 20 6 272 111 101 83 90 107 105 97 110 91 97 62 38 38 37 27 26 39 52 39 26 13 13 3 355 355 356 2 0 357 354 349 344 340 339 336 333 331 328 326 323 321
232 250 219 286 301 339 335 324 23 92 60 46 34 61 46 52 49 46 35 29 29 33 28 21 28 16 11 5 4 359 357 357 1 1 357 352 350 348 344 340 337 336 331 329 327 325 324 322 320
274 300 30 347 350 338 341 322 41 13 34 27 5 59 55 45 38 30 23 18 17 13 9 3 356 354 357 357 355 354 353 353 353 357 355 355 350 345 342 338 336 336 333 331 330 329 326 323 322
285 300 342 15 4 341 323 315 19 3 7 29 55 59 54 48 31 18 8 4 1 0 1 0 357 356 356 356 355 353 350 350 352 351 353 349 346 346 343 339 337 335 332 330 328 326 323 322 325
328 327 309 314 306 342 347 331 0 359 22 41 47 48 40 36 24 13 4 0 0 359 359 360 0 360 356 353 349 345 344 342 339 339 340 343 343 342 339 337 335 333 331 327 325 323 322 320 323
323 323 316 312 313 320 358 332 355 21 18 29 30 29 28 22 20 11 4 1 1 359 358 356 356 352 349 348 345 344 342 339 340 340 340 339 339 337 337 335 333 329 328 327 328 330 327 324 319
338 331 333 332 322 325 323 324 335 23 7 16 24 17 20 15 15 7 1 360 360 1 359 355 351 352 349 347 347 346 344 344 343 342 339 338 337 338 336 333 333 334 334 332 331 328 327 325 321
345 341 337 341 341 331 333 346 334 353 8 6 18 15 14 5 7 8 11 9 4 2 357 353 350 348 354 354 354 351 345 343 340 339 337 337 337 337 337 338 335 334 334 332 331 329 327 324 322
357 352 0 344 340 342 339 341 334 341 39 47 17 13 11 12 11 14 19 11 3 357 352 351 351 348 349 349 349 349 348 345 342 340 338 337 336 337 339 338 337 335 334 333 332 330 328 325 322
23 19 33 30 354 340 337 346 336 17 26 27 28 14 2 0 357 357 355 350 353 355 354 350 346 345 347 348 349 348 345 342 341 339 338 338 339 338 338 336 336 335 334 332 331 329 327 326 323
24 31 54 42 32 10 16 25 15 15 8 7 356 3 9 8 7 2 0 3 356 351 350 350 349 348 350 349 348 346 345 343 340 338 340 342 340 338 337 337 336 335 333 332 330 329 328 328 328
54 71 48 35 36 27 12 13 4 9 359 347 345 359 359 6 5 4 4 2 357 355 354 351 349 348 347 347 346 345 343 340 339 341 340 340 338 338 337 337 337 336 335 335 333 333 334 332 331
41 46 33 34 34 30 8 8 16 12 4 357 355 351 356 357 356 354 355 353 352 349 348 346 347 347 346 344 341 339 338 338 340 338 339 338 339 339 338 338 338 337 336 336 335 333 333 331 329
50 40 37 34 27 16 10 2 2 17 8 355 350 359 357 351 350 352 351 350 348 349 346 345 347 345 344 341 338 336 336 335 333 334 335 338 339 341 341 341 339 339 338 337 337 335 339 335 332